Weather in Domodedovo

Russia / Moscow Oblast     55°26′13″N   37°46′04″E
temp.,
°C
wind,
m/s
gust,
m/s
humid.,
%
clouds,
%
prec.,
mm/h
press.,
hPa
HPBL,
m
16 june, wed
wed1600:00+17nw33890 0.6 101040
03:00+15nw34880 0.6 101061
06:00+17nw37860 0.0 1011243
09:00+20nnw676480 0.0 1012815
12:00+22nnw666068 0.0 10131561
15:00+24nnw56486 0.1 10132018
18:00+22n59548 0.0 1014392
21:00+16ne346439 0.0 101749
17 june, thu
thu1700:00+14n336280 0.0 101922
03:00+13n22715 0.0 102114
06:00+14n26725 0.0 1022193
09:00+19n46495 0.0 1023707
12:00+22nne35425 0.0 10241564
15:00+23n34395 0.0 10242083
18:00+23nne34520 0.0 1024354
21:00+16ese226548 0.0 102511
18 june, fri
fri1800:00+15sw22695 0.0 102611
03:00+13sw22765 0.0 102714
06:00+16w22755 0.0 102776
09:00+21w115726 0.0 1028396
12:00+24sw21475 0.0 10281238
15:00+25s22474 0.0 10271388
18:00+25sse336051 0.0 1026455
21:00+19ssw478436 0.0 1027110
19 june, sat
sat1900:00+17wsw478625 0.0 1028121
03:00+15wsw36891 0.0 1028103
06:00+17wsw36860 0.0 1029176
09:00+22wsw35686 0.0 1029539
12:00+25sw345613 0.0 10271189
15:00+26sw344982 0.0 10261573
18:00+25ssw35639 0.0 1025377
21:00+19ssw488231 0.0 1026116
20 june, sun
sun2000:00+17wsw3687100 0.0 102787
03:00+16wsw349081 0.0 102760
06:00+17wsw358629 0.0 1027144
09:00+22wsw33680 0.0 1026561
12:00+25ssw33545 0.0 10251223
15:00+27ssw33485 0.0 10241569
18:00+26s456154 0.0 1023382
21:00+20sw478010 0.0 102397